Chattanooga, TN

4:11 PM EDT on June 26, 2017 (GMT -0400)
Lovell

Weather History for KCHA - August, 2013

Change the Weather History Date:

Thursday, August 29, 2013

  Actual Average Record
Temperature  
Mean Temperature 83 °F 78 °F  
Max Temperature 93 °F 88 °F 100 °F (1993)
Min Temperature 72 °F 68 °F 54 °F (1992)
Cooling Degree Days 18 13  
Month to date cooling degree days 376 421  
Year to date cooling degree days 1356 1425  
Since 1 June cooling degree days 1180 1229  
Growing Degree Days 32 (Base 50)    
Moisture  
Dew Point 71 °F    
Average Humidity 70    
Maximum Humidity 87    
Minimum Humidity 52    
Precipitation  
Precipitation 0.00 in 0.11 in 1.66 in (1884)
Month to date precipitation 6.53 3.28  
Year to date precipitation 54.16 35.06  
Snow  
Snow 0.00 in - - ()
Month to date snowfall 0.0  
Since 1 June snowfall 0.0  
Snow Depth 0.00 in    
Sea Level Pressure  
Sea Level Pressure 29.99 in    
Wind  
Wind Speed 2 mph (NW)    
Max Wind Speed 9 mph    
Max Gust Speed 29 mph    
Visibility 9 miles    
Events      
T = Trace of Precipitation, MM = Missing Value Source: NWS Daily Summary

Daily Weather History Graph

Daily Weather History Graph

Search for Another Location

Airport or City:

Trip Planner

Search our weather history database for the weather conditions in past years. The results will help you decide how hot, cold, wet, or windy it might be!

Date:

Astronomy

Aug. 29, 2013 Rise Set
Actual Time 7:11 AM EDT 8:11 PM EDT
Civil Twilight 6:45 AM EDT 8:37 PM EDT
Nautical Twilight 6:14 AM EDT 9:07 PM EDT
Astronomical Twilight 5:42 AM EDT 9:39 PM EDT
Moon 1:09 AM EDT (8/29) 3:32 PM EDT (8/29)
Length of Visible Light 13h 51m
Length of Day
12h 59m
Last Quarter, 38% of the Moon is Illuminated
Aug 29
Last Quarter
Sep 5
New
Sep 12
First Quarter
Sep 19
Full
Sep 26
Last Quarter

Hourly Weather History & Observations

Time (EDT) Temp. Heat Index Dew Point Humidity Pressure Visibility Wind Dir Wind Speed Gust Speed Precip Events Conditions
12:53 AM 75.9 °F - 72.0 °F 87% 30.01 in 8.0 mi Calm Calm - N/A   Clear
1:53 AM 75.9 °F - 71.1 °F 85% 30.00 in 8.0 mi Calm Calm - N/A   Clear
2:53 AM 75.0 °F - 71.1 °F 87% 29.99 in 7.0 mi Calm Calm - N/A   Clear
3:53 AM 75.0 °F - 71.1 °F 87% 29.99 in 8.0 mi Calm Calm - N/A   Clear
4:53 AM 73.0 °F - 70.0 °F 90% 30.00 in 7.0 mi Calm Calm - N/A   Clear
5:53 AM 73.0 °F - 69.1 °F 87% 30.00 in 6.0 mi Calm Calm - N/A   Scattered Clouds
6:53 AM 73.0 °F - 69.1 °F 87% 30.01 in 6.0 mi Calm Calm - N/A   Scattered Clouds
7:53 AM 73.0 °F - 70.0 °F 90% 30.03 in 7.0 mi Calm Calm - N/A   Mostly Cloudy
8:53 AM 75.0 °F - 70.0 °F 84% 30.04 in 10.0 mi Calm Calm - N/A   Mostly Cloudy
9:53 AM 80.1 °F 83.2 °F 70.0 °F 71% 30.04 in 10.0 mi SW 4.6 mph - N/A   Mostly Cloudy
10:53 AM 84.0 °F 88.4 °F 70.0 °F 63% 30.03 in 10.0 mi WNW 5.8 mph - N/A   Scattered Clouds
11:53 AM 84.9 °F 90.1 °F 71.1 °F 63% 30.02 in 10.0 mi Calm Calm - N/A   Scattered Clouds
12:53 PM 89.1 °F 95.0 °F 71.1 °F 55% 30.01 in 10.0 mi Calm Calm - N/A   Mostly Cloudy
1:53 PM 89.1 °F 94.1 °F 70.0 °F 53% 29.99 in 10.0 mi North 3.5 mph - N/A   Mostly Cloudy
2:53 PM 90.0 °F 96.4 °F 71.1 °F 54% 29.98 in 10.0 mi NNW 4.6 mph - N/A   Mostly Cloudy
3:53 PM 91.9 °F 98.4 °F 71.1 °F 50% 29.96 in 10.0 mi West 3.5 mph - N/A   Mostly Cloudy
4:53 PM 91.0 °F 97.6 °F 71.1 °F 52% 29.95 in 10.0 mi Calm Calm - N/A   Scattered Clouds
5:53 PM 91.9 °F 99.5 °F 72.0 °F 52% 29.94 in 10.0 mi NNW 8.1 mph - N/A   Scattered Clouds
6:53 PM 90.0 °F 96.9 °F 72.0 °F 55% 29.94 in 10.0 mi NW 4.6 mph - N/A   Scattered Clouds
7:53 PM 87.1 °F 94.5 °F 73.0 °F 63% 29.94 in 10.0 mi WNW 3.5 mph - N/A   Mostly Cloudy
8:53 PM 84.9 °F 92.1 °F 73.9 °F 69% 29.95 in 10.0 mi Calm Calm - N/A   Mostly Cloudy
9:53 PM 84.0 °F 91.2 °F 73.9 °F 72% 29.96 in 10.0 mi Calm Calm - N/A   Mostly Cloudy
10:53 PM 82.0 °F 88.6 °F 75.0 °F 79% 29.97 in 10.0 mi Calm Calm - N/A   Mostly Cloudy
11:53 PM 82.9 °F 89.4 °F 73.9 °F 74% 29.96 in 10.0 mi Calm Calm - N/A   Mostly Cloudy